Regional Weather Roundup
Issued by NWS

Home | Current Version | Previous Version | Text Only | Print | Product List | Glossary Off
Versions: 1 2 3 4 5 6 7 8 9 10 11 12 13 14 15 16 17 18 19 20 21 22 23 24 25 26 27 28 29 30 31 32 33 34 35 36 37 38 39 40 41 42 43 44 45 46 47 48 49 50

000
ASUS43 KLOT 181010
RWRIL

ILLINOIS REGIONAL WEATHER ROUNDUP
NATIONAL WEATHER SERVICE CHICAGO/ROMEOVILLE IL
500 AM CDT FRI APR 18 2014

NOTE: "FAIR" INDICATES FEW OR NO CLOUDS BELOW 12,000 FEET WITH NO
SIGNIFICANT WEATHER AND/OR OBSTRUCTIONS TO VISIBILITY.

* THESE STATIONS ARE NOT UNDER NWS QUALITY CONTROL. THEY ALSO MAY NOT
  REPORT WEATHER SUCH AS PRECIPITATION OR FOG.

ILZ001-002-007-009-015-016-024-181100-
NORTHWEST ILLINOIS

CITY           SKY/WX    TMP DP  RH WIND       PRES   REMARKS
MOLINE         CLEAR     33  29  85 CALM      30.31R
STERLING*      CLEAR     36  30  80 NE7       30.29R WCI  30
SAVANNA*       CLEAR     34  31  90 N5        30.30R WCI  30
$$

ILZ003-004-008-010-011-017-018-181100-
NORTH CENTRAL ILLINOIS

CITY           SKY/WX    TMP DP  RH WIND       PRES   REMARKS
ROCKFORD       PTCLDY    36  31  82 N8        30.31R WCI  30
FREEPORT*      CLEAR     34  32  92 N3        30.31S
ROCHELLE*      CLEAR     33  31  92 N5        30.29S WCI  29
DE KALB*       CLEAR     34  32  94 N7        30.28S WCI  27
PERU*          CLEAR     38  35  89 CALM      30.28S
$$

ILZ005-006-012>014-019>023-181100-
NORTHEAST ILLINOIS

CITY           SKY/WX    TMP DP  RH WIND       PRES   REMARKS
CHICAGO-OHARE  CLEAR     42  34  73 N7        30.26R
CHICAGO-MIDWAY PTCLDY    45  38  76 N12       30.25R
AURORA         CLEAR     37  33  85 N7        30.27R FOG     WCI  32
LANSING*       CLOUDY    48  38  67 CALM      30.25R
WAUKEGAN       PTCLDY    39  33  79 N7        30.27R WCI  34
DUPAGE AIRPORT CLEAR     39  36  89 N8        30.26R WCI  33
KANKAKEE*      MOCLDY    45  42  89 CALM      30.28R
WHEELING       CLEAR     41  35  79 N6        30.29R
MORRIS*        PTCLDY    41  35  78 NW5       30.26S
ROMEOVILLE*    CLOUDY    42  37  85 NW6       30.26R
NORTHERLY ISL    N/A     42  37  82 MISG        N/A
$$

LMZ740>746-181100-
SOUTHERN LAKE MICHIGAN

STATION/POSITION SKY/WX   TEMP    WIND        PRES    VSBY  WAVE
                          AIR SEA DIR/SP/G                  HT/PER
                          (F)     (DEG/KT/KT) (MB)    (MI)  (FT/S)
WAUKEGAN HARBOR            41     360/ 11/ 14 1026.4R
HARRISON CRIB              41     350/ 12/ 14   N/A
BURNHAM HARBOR             43     350/  9/ 14   N/A
CALUMET HARBOR             43     340/ 11/ 15 1025.2R
MICHIGAN CITY              45     230/  3/  3   N/A
$$

ILZ025>027-034>036-040-047-049-050-058-095>099-181100-
WEST-CENTRAL ILLINOIS

CITY           SKY/WX    TMP DP  RH WIND       PRES   REMARKS
QUINCY         CLEAR     38  33  82 NW5       30.29R WCI  34
GALESBURG*     CLEAR     30  30 100 N3        30.29R
MACOMB*        CLEAR     34  32  92 NW5       30.31R WCI  30
JACKSONVILLE*  MOCLDY    43  37  80 CALM      30.30R
PITTSFIELD*    CLEAR     40  37  90 W3        30.30R FOG
$$

ILZ028>032-037-038-041>044-048-051>054-059>061-181100-
CENTRAL ILLINOIS

CITY           SKY/WX    TMP DP  RH WIND       PRES   REMARKS
PONTIAC        CLOUDY    45  39  81 NW5       30.28R
BLOOMINGTON    CLOUDY    45  35  67 NW3       30.29R
DECATUR        PTCLDY    45  38  76 N9        30.28R
PEORIA         CLEAR     43  34  70 CALM      30.29R
LACON*         CLEAR     38  35  89 CALM      30.27S
LINCOLN*       CLOUDY    43  39  86 CALM      30.29S
SPRINGFIELD    PTCLDY    43  37  79 CALM      30.30R
TAYLORVILLE    PTCLDY    41  36  81 N6        30.28R
$$

ILZ033-039-045-046-055>057-062-063-181100-
EAST-CENTRAL ILLINOIS

CITY           SKY/WX    TMP DP  RH WIND       PRES   REMARKS
CHAMPAIGN      PTCLDY    44  38  79 CALM      30.27R
RANTOUL*       MOCLDY    48  39  71 CALM      30.28R
MATTOON        CLOUDY    46  41  82 N8        30.26R
PARIS*         CLOUDY    46  41  81 CALM      30.27S
$$

ILZ079-100>102-181100-
SOUTHWEST ILLINOIS

CITY           SKY/WX    TMP DP  RH WIND       PRES   REMARKS
ALTON          CLEAR     45  38  78 CALM      30.29R
BELLEVILLE     PTCLDY    49  42  79 N5        30.26R
CAHOKIA*       PTCLDY    47  40  76 N6        30.27S
SPARTA*        CLOUDY    48  43  81 CALM      30.27R
$$

ILZ064>066-069>071-074>076-080>082-084>086-088>090-092>094-181100-
SOUTH-CENTRAL ILLINOIS

CITY           SKY/WX    TMP DP  RH WIND       PRES   REMARKS
CARBONDALE     MOCLDY    46  42  86 CALM      30.26S
CAIRO*         CLOUDY    50  46  86 CALM      30.26S
MARION         PTCLDY    46  43  87 S3        30.27S
MT. VERNON     CLOUDY    45  34  65 CALM      30.27R
CENTRALIA*       N/A     49  40  73 CALM      30.26S
SALEM*         PTCLDY    49  43  79 N5        30.26R
METROPOLIS*    MOCLDY    47  42  85 CALM      30.25F
$$

ILZ067-068-072-073-078-083-087-091-181100-
SOUTHEAST ILLINOIS

CITY           SKY/WX    TMP DP  RH WIND       PRES   REMARKS
FAIRFIELD*     MOCLDY    46  43  87 CALM      30.26S
HARRISBURG*    MOCLDY    44  43  96 CALM      30.28S
ROBINSON*      MOCLDY    46  44  93 CALM      30.27S
CARMI*         MOCLDY    44  44  99 CALM      30.26S
$$

ABBREVIATIONS USED IN REMARKS
   TC - TEMPERATURE IN CELSIUS
  WCI - WIND CHILL INDEX
   HX - HEAT INDEX
  VSB - VISIBILITY
$$




USA.gov is the U.S. government's official web portal to all federal, state and local government web resources and services.